#timestamp,LO_Frequency,Hit,StdDev 
1502301615.6,286046998.3,P,1.4
1502301635.4,286046998.7,N,1.2
1502301655.3,286046998.9,N,1.1
1502301675.1,286046999.0,N,0.9
1502301695.8,286046998.9,N,0.9
1502301715.7,286046999.0,N,0.8
1502301735.5,286046998.3,N,0.8
1502301755.4,286046998.7,N,0.8
1502301775.2,286682704.6,Y,0.0
1502301795.0,286047001.0,P,1.0
1502301795.9,286047001.0,N,1.0
1502301815.8,286047000.7,N,0.8
1502301835.6,286047000.8,N,0.8
1502301855.5,286046998.1,N,1.1
1502301875.3,286046998.6,N,1.2
1502301895.1,286046998.7,N,1.2
1502301915.9,286046998.1,N,1.2
1502301935.7,286047000.4,N,1.2
1502301955.5,286047000.5,N,1.2
1502301975.4,286047000.4,N,1.1
1502301995.2,286046998.4,N,1.1
1502302015.1,286046998.5,N,1.1
1502302016.0,286046998.5,N,1.1
1502302035.8,286046998.2,N,1.1
1502302055.6,286046998.4,N,1.1
1502302075.5,286047000.8,N,1.1
1502302095.3,286047011.9,Y,0.0
1502302115.2,286046998.8,P,0.3
1502302135.9,286046999.0,P,0.3
1502302155.7,286046999.5,N,0.3
1502302175.6,286046999.6,N,0.3
1502302195.4,286046997.0,Y,0.0
1502302215.3,286046999.1,P,0.1
1502302235.1,286046999.6,P,0.2
1502302236.0,286046999.6,N,0.2
1502302255.8,286046996.8,Y,0.0
1502302275.7,286046996.5,P,1.4
1502302295.5,286046999.0,N,1.3
1502302315.4,286046999.1,N,1.2
1502302335.2,286046997.3,N,1.1
1502302355.0,286046999.3,N,1.1
1502302355.9,286046999.3,N,1.1
1502302375.8,286046997.8,N,1.0
1502302395.6,286046996.8,Y,0.0
1502302415.5,286046998.8,P,0.2
1502302435.3,286046996.6,P,1.0
1502302455.1,286046996.9,P,1.0
1502302475.9,286046996.8,Y,0.0
1502302495.7,286047000.8,P,1.6
1502302515.6,286047000.8,N,1.5
1502302535.4,286047000.4,N,1.3
1502302555.2,286047000.8,N,1.2
1502302575.1,286046998.7,N,1.2
1502302576.0,286046998.7,N,1.2
1502302595.8,286046998.7,N,1.2
1502302615.7,286046999.0,N,1.1
1502302635.5,286046998.9,N,1.1
1502302655.3,286047000.3,N,1.1
1502302675.2,286047001.0,N,1.1
1502302695.0,286047000.9,N,1.1
1502302695.9,286047000.9,N,1.1
1502302715.7,286047001.1,N,1.1
1502302735.6,286046998.8,N,1.1
1502302755.4,286046999.4,N,1.1
1502302775.3,286046999.2,N,1.1
1502302795.1,286046998.9,N,1.0
1502302815.8,286046999.0,N,1.0
1502302835.7,286046998.8,N,1.0
1502302855.5,286046999.1,N,1.0
1502302875.4,286047001.2,N,1.0
1502302895.2,286047000.8,N,1.0
1502302915.0,286047001.2,N,1.1
1502302915.9,286047001.2,N,1.1
1502302935.8,286046999.4,N,1.1
1502302955.6,286046997.0,N,1.2
1502302975.5,286046996.5,Y,0.0
1502302995.3,286046997.8,P,1.0
1502303015.1,286046994.9,P,2.0
1502303035.9,286046997.6,N,1.7
1502303055.7,286046997.3,N,1.5
1502303075.5,286046996.7,N,1.4
1502303095.4,286046997.5,N,1.3
1502303115.2,286046997.2,N,1.2
1502303135.1,286046996.8,N,1.2
1502303136.0,286046996.8,N,1.1
1502303155.8,286046997.1,N,1.1
1502303175.7,286046996.5,Y,0.0
1502303195.5,286047000.3,P,1.5
1502303215.3,286047002.8,N,2.3
1502303235.2,286047002.8,N,2.3
1502303255.0,286047000.4,N,2.1
1502303255.9,286047000.4,N,1.9
1502303275.7,286047000.5,N,1.7
1502303295.6,286047001.2,N,1.6
1502303315.4,286047000.7,N,1.5
1502303335.3,286046998.2,N,1.6
1502303355.1,286046999.4,N,1.6
1502303375.8,286046998.1,N,1.7
1502303395.7,286046998.5,N,1.7
1502303415.5,286046998.3,N,1.7
1502303435.4,286046998.8,N,1.6
1502303455.2,286046997.0,N,1.7
1502303475.0,286046996.7,N,1.8
1502303475.9,286046996.7,N,1.9
1502303495.8,286046996.7,N,1.9
1502303515.6,286046999.5,N,1.9
1502303535.4,286046999.5,N,1.8
1502303555.3,286046999.2,N,1.8
1502303575.1,286046996.8,N,1.8
1502303595.9,286046996.7,N,1.8
1502303615.7,286046995.1,N,2.0
1502303635.5,286046997.5,N,1.9
1502303655.4,286046997.3,N,1.9
1502303675.2,286046999.4,N,1.9
1502303695.1,286046999.2,N,1.9
1502303696.0,286046999.2,N,1.8
1502303715.8,286046997.0,N,1.8
1502303735.6,286046999.5,N,1.8
1502303755.5,286046999.6,N,1.7
1502303775.3,286046996.9,N,1.5
1502303795.2,286046999.5,N,1.5
1502303815.0,286046996.9,N,1.5
1502303815.9,286046996.9,N,1.4
1502303835.8,286046996.9,N,1.3
1502303855.6,286046996.9,N,1.2
1502303875.4,286046996.5,N,1.3
1502303895.3,286046996.9,N,1.2
1502303915.1,286046996.9,N,1.3
1502303935.8,286046996.7,N,1.3
1502303955.7,286046996.7,N,1.3
1502303975.5,286046996.9,N,1.3
1502303995.4,286046996.6,N,1.3
1502304015.2,286046996.9,N,1.3
1502304035.0,286046998.4,N,1.3
1502304035.9,286046998.4,N,1.2
1502304055.8,286046998.8,N,1.2
1502304075.6,286047000.7,N,1.3
1502304095.5,286046998.1,N,1.3
1502304115.3,286047001.2,N,1.4
1502304135.1,286047000.8,N,1.5
1502304155.9,286046999.9,N,1.4
1502304175.7,286047000.2,N,1.5
1502304195.6,286047000.1,N,1.5
1502304215.4,286047000.2,N,1.5
1502304235.2,286047000.2,N,1.6
1502304255.1,286047000.1,N,1.6
1502304256.0,286047000.1,N,1.6
1502304275.8,286046999.9,N,1.6
1502304295.6,286047002.5,N,1.7
1502304315.5,286047000.1,N,1.7
1502304335.3,286046999.7,N,1.7
1502304355.2,286047002.1,N,1.8
1502304375.0,286047000.4,N,1.8
1502304375.9,286047000.4,N,1.8
1502304395.7,286047002.3,N,1.8
1502304415.6,286047001.9,N,1.8
1502304435.4,286047001.8,N,1.8
1502304455.3,286047004.4,N,1.9
1502304475.1,286047004.3,N,2.0
1502304476.0,286047004.3,N,2.0
1502304495.8,286047004.4,N,2.0
1502304515.7,286047004.0,N,1.9
1502304535.5,286047001.4,N,1.8
1502304555.4,286047004.4,N,1.8
1502304575.2,286047001.8,N,1.8
1502304595.0,286047003.9,N,1.7
1502304595.9,286047003.9,N,1.8
1502304615.8,286047004.3,N,1.7
1502304635.6,286047004.4,N,1.8
1502304655.5,286047004.2,N,1.8
1502304675.3,286047003.1,N,1.8
1502304695.1,286047003.0,N,1.7
1502304715.9,286047003.1,N,1.7
1502304735.7,286047003.9,N,1.7
1502304755.6,286047001.3,N,1.6
1502304775.4,286047002.9,N,1.6
1502304795.2,286047003.6,N,1.5
1502304815.1,286047003.4,N,1.4
1502304816.0,286047003.4,N,1.4
1502304835.8,286047005.6,Y,0.0
1502304855.7,286047002.6,P,0.1
1502304875.5,286047001.5,P,0.6
1502304895.3,286047004.4,P,1.0
1502304915.2,286047004.1,Y,0.0
1502304935.0,286047000.5,P,1.2
1502304935.9,286047000.5,N,1.1
1502304955.8,286047000.6,N,1.0
1502304975.6,286047000.5,N,0.9
1502304995.4,286047000.4,N,0.9
1502305015.3,286047000.9,N,0.8
1502305035.1,286047000.5,N,0.8
1502305055.9,286046998.6,N,1.0
1502305075.7,286046998.9,N,1.1
1502305095.5,286046998.8,N,1.1
1502305115.4,286046998.1,N,1.2
1502305135.2,286046998.2,N,1.3
1502305155.1,286047001.0,N,1.3
1502305156.0,286047001.0,N,1.3
1502305175.8,286047000.0,N,1.2
1502305195.6,286047000.0,N,1.2
